UTA7775 USRO-URSS

Flight info

Callsign UTA7775
Flight time N/A
Altitude 34000
Route DINOL2G DINOL T797 ANIKI T764 GITEK T691 UROBO G128 ST G900 SM B950 AG AG1K
Aircraft B738/M-SDE2E3FGHIRWXY/LB1

Departure

Time 2026-04-17 05:59
Airport Noyabrsk Airport (USRO)

Arrival

Time N/A
Airport Sochi International Airport (URSS)
Time Latitude Longitude Altitude Speed Heading
2026-04-17 05:16 63.18316 75.27308 454 ft 0 kts 204°
2026-04-17 05:52 63.18303 75.27294 455 ft 4 kts 208°
2026-04-17 05:52 63.18262 75.27247 455 ft 8 kts 204°
2026-04-17 05:52 63.18214 75.27187 456 ft 8 kts 219°
2026-04-17 05:53 63.18167 75.27136 456 ft 8 kts 197°
2026-04-17 05:53 63.18117 75.27101 455 ft 8 kts 200°
2026-04-17 05:53 63.18067 75.27118 457 ft 8 kts 123°
2026-04-17 05:53 63.18030 75.27181 455 ft 3 kts 169°
2026-04-17 05:54 63.17996 75.27164 457 ft 11 kts 199°
2026-04-17 05:54 63.17927 75.27091 456 ft 11 kts 218°
2026-04-17 05:54 63.17904 75.26944 457 ft 10 kts 263°
2026-04-17 05:54 63.17856 75.26835 457 ft 10 kts 204°
2026-04-17 05:55 63.17798 75.26754 458 ft 10 kts 239°
2026-04-17 05:55 63.17811 75.26612 457 ft 10 kts 291°
2026-04-17 05:55 63.17838 75.26475 455 ft 9 kts 296°
2026-04-17 05:55 63.17831 75.26341 458 ft 9 kts 230°
2026-04-17 05:56 63.17778 75.26266 458 ft 9 kts 205°
2026-04-17 05:56 63.17722 75.26208 460 ft 9 kts 205°
2026-04-17 05:56 63.17667 75.26151 459 ft 9 kts 205°
2026-04-17 05:56 63.17614 75.26094 459 ft 8 kts 205°
2026-04-17 05:57 63.17562 75.26039 457 ft 8 kts 206°
2026-04-17 05:57 63.17493 75.25986 458 ft 16 kts 194°
2026-04-17 05:57 63.17392 75.25953 460 ft 7 kts 216°
2026-04-17 05:57 63.17373 75.25885 460 ft 2 kts 280°
2026-04-17 05:58 63.17386 75.25873 460 ft 3 kts 356°
2026-04-17 05:58 63.17406 75.25885 459 ft 3 kts 19°
2026-04-17 05:58 63.17417 75.25896 459 ft 0 kts 22°
2026-04-17 05:59 63.17457 75.25932 458 ft 31 kts 24°
2026-04-17 05:59 63.17903 75.26394 456 ft 109 kts 26°
2026-04-17 05:59 63.18792 75.27334 525 ft 168 kts 25°
2026-04-17 05:59 63.19850 75.28656 1381 ft 181 kts 28°
2026-04-17 06:00 63.20992 75.29786 2267 ft 187 kts 14°
2026-04-17 06:00 63.22383 75.29537 2326 ft 207 kts 349°
2026-04-17 06:00 63.23805 75.28874 2946 ft 211 kts 349°
2026-04-17 06:00 63.25263 75.28973 3486 ft 216 kts 24°
2026-04-17 06:01 63.26322 75.31334 4083 ft 226 kts 61°
2026-04-17 06:01 63.26700 75.34884 4452 ft 250 kts 88°
2026-04-17 06:01 63.26246 75.38691 5141 ft 263 kts 118°
2026-04-17 06:01 63.24983 75.41660 5834 ft 272 kts 147°
2026-04-17 06:02 63.23190 75.42978 5978 ft 276 kts 179°
2026-04-17 06:02 63.21358 75.42005 6011 ft 273 kts 214°
2026-04-17 06:02 63.19865 75.39406 5972 ft 274 kts 223°
2026-04-17 06:02 63.18445 75.36630 5998 ft 270 kts 224°
2026-04-17 06:03 63.17051 75.33845 5994 ft 270 kts 225°
2026-04-17 06:03 63.15701 75.30964 5971 ft 271 kts 226°
2026-04-17 06:03 63.14311 75.28157 6010 ft 270 kts 223°
2026-04-17 06:03 63.12848 75.25467 6313 ft 277 kts 222°
2026-04-17 06:04 63.11387 75.22696 7146 ft 276 kts 224°
2026-04-17 06:04 63.09938 75.19908 7950 ft 277 kts 224°
2026-04-17 06:04 63.08483 75.17096 8697 ft 279 kts 224°
2026-04-17 06:04 63.07009 75.14260 9440 ft 282 kts 224°
2026-04-17 06:05 63.05521 75.11393 10198 ft 285 kts 224°
2026-04-17 06:05 63.04000 75.08470 10471 ft 305 kts 224°
2026-04-17 06:05 63.02348 75.05295 10706 ft 324 kts 224°
2026-04-17 06:05 63.00619 75.01993 11214 ft 332 kts 224°
2026-04-17 06:06 62.98866 74.98659 11878 ft 336 kts 224°
2026-04-17 06:06 62.97086 74.95282 12556 ft 339 kts 224°
2026-04-17 06:06 62.95284 74.91869 13224 ft 344 kts 224°
2026-04-17 06:06 62.93461 74.88420 13868 ft 348 kts 225°
2026-04-17 06:07 62.91613 74.84931 14431 ft 353 kts 225°
2026-04-17 06:07 62.89738 74.81394 14983 ft 357 kts 225°
2026-04-17 06:07 62.87844 74.77826 15566 ft 361 kts 226°
2026-04-17 06:07 62.85925 74.74217 16147 ft 365 kts 226°
2026-04-17 06:08 62.83985 74.70579 16708 ft 369 kts 226°
2026-04-17 06:08 62.82007 74.66925 17273 ft 374 kts 224°
2026-04-17 06:08 62.79925 74.63423 17831 ft 380 kts 222°
2026-04-17 06:08 62.77783 74.59994 18387 ft 385 kts 222°
2026-04-17 06:09 62.75606 74.56556 18878 ft 389 kts 222°
2026-04-17 06:09 62.73433 74.53122 19357 ft 392 kts 223°
2026-04-17 06:09 62.71218 74.49606 19847 ft 395 kts 223°
2026-04-17 06:09 62.68989 74.46055 20324 ft 398 kts 223°
2026-04-17 06:10 62.66743 74.42472 20797 ft 402 kts 224°
2026-04-17 06:10 62.64478 74.38860 21251 ft 405 kts 224°
2026-04-17 06:10 62.62193 74.35220 21715 ft 409 kts 224°
2026-04-17 06:10 62.59888 74.31556 22172 ft 412 kts 224°
2026-04-17 06:11 62.57565 74.27869 22619 ft 415 kts 224°
2026-04-17 06:11 62.55218 74.24151 23057 ft 419 kts 225°
2026-04-17 06:11 62.52851 74.20413 23469 ft 423 kts 225°
2026-04-17 06:11 62.50469 74.16644 23866 ft 426 kts 225°
2026-04-17 06:12 62.48094 74.12890 24233 ft 429 kts 225°
2026-04-17 06:12 62.45675 74.09075 24615 ft 430 kts 225°
2026-04-17 06:12 62.43249 74.05255 24990 ft 432 kts 225°
2026-04-17 06:12 62.40812 74.01426 25350 ft 435 kts 225°
2026-04-17 06:13 62.38360 73.97580 25712 ft 436 kts 225°
2026-04-17 06:13 62.35899 73.93731 26069 ft 438 kts 225°
2026-04-17 06:13 62.33417 73.89855 26408 ft 441 kts 225°
2026-04-17 06:13 62.30924 73.85969 26732 ft 443 kts 225°
2026-04-17 06:14 62.28418 73.82073 27053 ft 445 kts 225°
2026-04-17 06:14 62.25901 73.78163 27329 ft 447 kts 226°
2026-04-17 06:14 62.23384 73.74264 27729 ft 447 kts 226°
2026-04-17 06:14 62.20854 73.70360 28052 ft 449 kts 226°
2026-04-17 06:15 62.18312 73.66439 28322 ft 452 kts 226°
2026-04-17 06:15 62.15752 73.62499 28620 ft 454 kts 226°
2026-04-17 06:15 62.13214 73.58559 28814 ft 458 kts 227°
2026-04-17 06:15 62.10655 73.54496 29088 ft 459 kts 227°
2026-04-17 06:16 62.08089 73.50399 29413 ft 460 kts 227°
2026-04-17 06:16 62.05520 73.46304 29706 ft 462 kts 227°
2026-04-17 06:16 62.02939 73.42209 29966 ft 464 kts 227°
2026-04-17 06:16 62.00337 73.38100 30220 ft 466 kts 227°
2026-04-17 06:17 61.97719 73.33982 30463 ft 468 kts 227°
2026-04-17 06:17 61.95095 73.29867 30660 ft 470 kts 226°
2026-04-17 06:17 61.92466 73.25748 30813 ft 470 kts 227°
2026-04-17 06:17 61.89830 73.21629 31065 ft 471 kts 227°
2026-04-17 06:18 61.87182 73.17507 31253 ft 473 kts 227°
2026-04-17 06:18 61.84632 73.13546 31424 ft 475 kts 226°